TimeEDT,TemperatureF,Dew PointF,Humidity,Sea Level PressureIn,VisibilityMPH,Wind Direction,Wind SpeedMPH,Gust SpeedMPH,PrecipitationIn,Events,Conditions,WindDirDegrees,DateUTC
12:53 AM,73.0,66.9,81,30.06,10.0,ESE,8.1,-,N/A,,Clear,110,2013-03-18 04:53:00
1:53 AM,73.0,68.0,84,30.03,10.0,ESE,11.5,-,N/A,,Clear,120,2013-03-18 05:53:00
2:53 AM,73.0,68.0,84,30.01,10.0,ESE,11.5,-,N/A,,Clear,110,2013-03-18 06:53:00
3:53 AM,73.0,68.0,84,30.00,10.0,ESE,9.2,-,N/A,,Mostly Cloudy,110,2013-03-18 07:53:00
4:09 AM,73.4,68.0,83,30.00,10.0,ESE,10.4,-,N/A,,Scattered Clouds,110,2013-03-18 08:09:00
4:53 AM,73.0,69.1,87,29.99,10.0,ESE,9.2,-,N/A,,Clear,110,2013-03-18 08:53:00
5:53 AM,73.9,69.1,85,30.00,10.0,SE,11.5,-,N/A,,Clear,140,2013-03-18 09:53:00
6:53 AM,73.0,69.1,87,30.01,10.0,SE,10.4,-,N/A,,Clear,140,2013-03-18 10:53:00
7:53 AM,73.0,68.0,84,30.03,9.0,SSE,11.5,-,N/A,,Clear,150,2013-03-18 11:53:00
8:53 AM,73.9,69.1,85,30.04,10.0,SE,12.7,-,N/A,,Clear,140,2013-03-18 12:53:00
9:53 AM,75.9,69.1,79,30.05,10.0,SSE,11.5,-,N/A,,Clear,150,2013-03-18 13:53:00
10:53 AM,75.9,69.1,79,30.05,10.0,SSE,13.8,-,N/A,,Mostly Cloudy,150,2013-03-18 14:53:00
11:53 AM,77.0,69.1,76,30.04,10.0,SSE,13.8,-,N/A,,Partly Cloudy,150,2013-03-18 15:53:00
12:53 PM,78.1,70.0,76,30.02,10.0,SSE,13.8,-,N/A,,Clear,150,2013-03-18 16:53:00
1:53 PM,78.1,70.0,76,30.00,10.0,SSE,13.8,-,N/A,,Partly Cloudy,160,2013-03-18 17:53:00
2:53 PM,77.0,69.1,76,29.98,10.0,SSE,11.5,19.6,N/A,,Clear,160,2013-03-18 18:53:00
3:53 PM,77.0,70.0,79,29.97,9.0,SSE,6.9,-,N/A,,Mostly Cloudy,150,2013-03-18 19:53:00
4:53 PM,77.0,70.0,79,29.97,10.0,ESE,3.5,-,0.00,,Scattered Clouds,110,2013-03-18 20:53:00
5:53 PM,75.0,69.1,82,29.99,5.0,North,3.5,-,0.01,Rain,Light Rain,360,2013-03-18 21:53:00
6:53 PM,73.9,69.1,85,29.99,9.0,NNW,8.1,-,0.00,,Overcast,330,2013-03-18 22:53:00
7:14 PM,73.4,68.0,83,29.99,10.0,NW,9.2,-,N/A,,Overcast,320,2013-03-18 23:14:00
7:53 PM,72.0,68.0,87,29.99,10.0,NNW,3.5,-,N/A,,Clear,340,2013-03-18 23:53:00
8:53 PM,72.0,68.0,87,29.98,10.0,Calm,Calm,-,N/A,,Partly Cloudy,0,2013-03-19 00:53:00
9:53 PM,72.0,68.0,87,29.99,10.0,East,5.8,-,N/A,,Partly Cloudy,100,2013-03-19 01:53:00
10:53 PM,73.0,68.0,84,30.00,10.0,Calm,Calm,-,N/A,,Partly Cloudy,0,2013-03-19 02:53:00
11:53 PM,73.0,68.0,84,29.99,10.0,ESE,6.9,-,N/A,,Partly Cloudy,110,2013-03-19 03:53:00